Weather in Vaymusha

Russia / Arkhangel'skaya Oblast'     63°58′18″N   44°30′49″E
temp.,
°C
wind,
m/s
gust,
m/s
humid.,
%
clouds,
%
prec.,
mm/h
press.,
hPa
HPBL,
m
16 september, thu
thu1600:00+5nnw41083100 0.0 1013577
03:00+2nnw41189100 0.0 1014467
06:00+2nw31097100 0.0 1014362
09:00+5nnw477853 0.0 1014563
12:00+7nnw4673100 0.1 10141077
15:00+6nw4779100 0.3 1015693
18:00+6nw3777100 0.0 1015449
21:00+4nw3889100 0.0 1015288
17 september, fri
fri1700:00+4nnw2793100 0.3 1016304
03:00+5nnw3798100 1.1 1016298
06:00+4nne3997100 0.0 1018341
09:00+6nne488981 0.0 1019598
12:00+6nne5773100 0.0 10211057
15:00+4nne4866100 0.0 10231341
18:00+5nne3762100 0.0 1024608
21:00+4nnw3767100 0.0 1024208
18 september, sat
sat1800:00+4n3972100 0.0 1025414
03:00+4nnw3889100 0.1 1026437
06:00+3nnw289191 0.1 1026341
09:00+5n487487 0.1 1026851
12:00+6n4760100 0.1 10271464
15:00+7nnw3759100 0.1 10271453
18:00+6nnw387595 0.0 1027402
21:00+2nnw289792 0.1 1028198
19 september, sun
sun1900:00+4n388620 0.1 1028650
03:00+3nnw3878100 0.1 1029635
06:00+4n3970100 0.0 1030603
09:00+5n3872100 0.0 1031726
12:00+7n4659100 0.0 10311411
15:00+6nne3664100 0.0 10321150
18:00+5nne376795 0.0 1032450
21:00+4n3669100 0.0 1033313
20 september, mon
mon2000:00+4nnw2570100 0.0 1034146
03:00+4nnw2472100 0.0 1034116
06:00+4n1376100 0.0 103590
09:00+6n1362100 0.0 1035457
12:00+8nnw2255100 0.0 10351149
15:00+8nw125410 0.0 10341078
18:00+4wnw11745 0.0 103310
21:00+2wsw11834 0.0 103310